Location: Marstown
(39.5056°N, 77.0820°W)
Time: 07:17:38
(UTC-05:00)

ISS - Visible Passes

Search period start: 25 February 2024 00:00
Search period end: 06 March 2024 00:00
Orbit: 415 x 422 km, 51.6° (Epoch: 25 February)

Date Brightness Start Highest point End Pass type
(mag) Time Alt. Az. Time Alt. Az. Time Alt. Az.
25 Feb -1.0 04:44:53 12° NNE 04:44:53 12° NNE 04:45:32 10° NNE visible
25 Feb -1.1 06:20:26 10° NNW 06:21:22 11° N 06:22:18 10° NNE visible
26 Feb -1.1 05:32:25 10° NNW 05:33:16 11° N 05:34:07 10° NNE visible
27 Feb -0.9 04:45:51 11° N 04:45:51 11° N 04:46:17 10° NNE visible
28 Feb -1.1 05:33:38 10° NNW 05:34:55 12° N 05:36:12 10° NNE visible
29 Feb -0.9 04:46:36 11° N 04:46:39 11° N 04:47:33 10° NNE visible
01 Mar -1.2 05:34:02 10° NNW 05:36:15 16° NNE 05:38:28 10° ENE visible
02 Mar -1.1 04:47:14 13° N 04:47:56 13° NNE 04:49:40 10° NE visible
03 Mar -2.0 05:34:13 10° NW 05:37:12 28° NNE 05:40:10 10° E visible
04 Mar -1.6 04:47:52 18° N 04:48:52 20° NNE 04:51:28 10° ENE visible
05 Mar -0.6 04:01:46 13° NE 04:01:46 13° NE 04:02:36 10° ENE visible
05 Mar -3.5 05:34:42 13° NW 05:37:42 69° NE 05:41:02 10° ESE visible
